Volver al catálogo

COSMOS 606

ActivoMilitarHEO
NORAD 6916·PAYLOAD·🇷🇺 Russia

Lanzado Nov 2, 1973 desde Plesetsk Cosmodrome

Loading…

Próximos Pases (próximas 24 horas)

TLE

ActualizadoSource: Space-Track

Época: Sep 13, 2026, 21:42 UTC

1  6916U 73084A   26256.90460043 -.00000669  00000-0  00000+0 0  9992
2  6916  73.0691  67.7593 5049928 116.0434  11.4907  2.00432602387248

Sigue COSMOS 606 en tiempo real con AllMySat

Download on the App Store